Location: Hobi?a Gr?di?te
(45.4833°N, 22.7833°E)
Time: 06:27:00
(UTC+00:00)

NOSS 2-1 (E) - Pass Details

Date: 28 January 2023
Orbit: 404 x 1772 km, 63.3° (Epoch: 28 March)

Event Time Altitude Azimuth Distance (km) Brightness Sun altitude
Rises 16:12:44 0° 327° (NNW) 2,672 7.0 -7.9°
Reaches altitude 10° 16:14:46 10° 337° (NNW) 1,908 6.2 -8.3°
Maximum altitude 16:18:47 38° 46° (NE) 1,081 4.4 -8.9°
Drops below altitude 10° 16:24:14 10° 114° (ESE) 2,611 6.3 -9.8°
Sets 16:27:26 0° 122° (ESE) 3,808 7.2 -10.4°
